Theta_e
277 277 277 277 277 277 277 277 277 277 277 277 276 275 275 275 275 276 276 277 279 280 281 281 282 283 285 286 287 288 288 289 290 291 290 288 288 289 288 288 287 287 286
277 277 276 276 276 276 276 276 276 276 276 276 275 275 275 274 274 275 276 276 277 279 280 281 281 282 284 285 286 287 288 288 289 291 288 287 287 287 287 285 285 285 285
276 276 276 275 275 275 275 275 275 275 275 275 275 274 274 273 273 274 275 276 277 278 280 281 282 282 283 285 286 286 287 287 287 288 287 286 285 285 284 284 283 282 282
275 275 274 274 273 274 274 273 273 274 274 274 274 273 273 272 272 273 275 276 277 278 280 282 283 283 283 284 285 285 285 285 285 286 285 284 284 283 283 283 282 282 282
274 273 273 273 272 273 272 272 272 272 274 274 273 272 272 271 272 273 275 276 277 278 279 282 282 283 284 285 284 285 284 285 284 284 284 284 284 283 283 282 282 282 282
273 273 273 271 271 271 271 271 269 269 270 271 270 270 270 271 271 273 275 276 277 277 279 282 282 283 284 285 285 285 284 284 284 284 285 284 283 283 283 282 282 282 282
272 272 271 270 270 269 268 267 267 267 268 268 268 269 270 270 271 273 274 275 276 278 279 281 282 284 284 284 285 285 285 284 283 283 283 283 283 283 282 282 282 282 281
271 270 269 269 267 266 266 265 265 266 266 267 268 268 269 269 271 272 274 275 276 278 280 281 282 284 284 283 283 283 283 282 284 284 283 284 283 283 282 282 282 281 280
269 268 268 267 265 265 264 264 264 265 266 266 267 267 267 268 270 272 274 275 276 279 279 281 282 282 283 284 283 282 282 282 282 282 283 283 283 283 282 281 280 280 281
267 268 266 265 264 263 263 264 264 264 265 264 265 266 267 268 270 272 273 276 277 277 278 281 281 282 282 283 283 282 281 281 281 282 283 283 283 282 283 282 281 281 280
266 265 264 263 263 263 263 263 263 263 263 264 265 267 268 269 270 271 274 276 277 278 279 280 280 281 282 283 283 282 282 281 281 281 281 281 281 281 281 281 280 280 280
264 263 262 262 262 263 262 263 262 263 263 264 265 266 268 269 269 271 274 275 277 277 278 278 280 281 282 282 283 283 282 282 281 281 280 280 280 280 279 279 278 278 279
262 261 261 261 262 261 262 261 262 262 263 264 265 267 268 268 269 271 272 275 275 277 278 279 279 281 283 282 283 283 282 281 280 279 278 277 277 277 277 277 277 277 277
261 261 261 261 261 260 260 261 261 262 263 264 267 267 268 268 269 270 273 274 275 276 275 276 278 281 281 282 282 280 279 278 278 277 277 276 276 275 275 275 274 274 274
260 260 260 260 260 260 260 260 262 262 264 266 267 268 268 269 269 273 273 275 274 274 273 274 274 275 278 278 277 277 276 276 276 276 275 275 274 274 273 272 272 271 270
259 260 260 259 259 259 259 260 261 262 264 265 266 267 268 269 270 272 273 272 272 271 270 270 271 272 272 273 273 274 273 273 273 273 273 272 272 272 271 270 270 269 268
258 259 258 258 258 259 259 259 259 260 261 263 264 266 268 268 269 271 271 270 269 268 266 266 267 268 269 269 269 269 270 270 270 270 270 270 270 270 269 269 269 268 268
258 258 258 258 258 258 258 258 258 259 260 261 262 264 266 266 268 268 269 266 264 265 264 264 264 265 265 266 267 267 267 268 268 268 268 268 268 267 267 266 267 266 266
259 258 258 258 257 257 257 258 258 259 260 260 261 262 263 264 266 265 265 264 263 263 263 263 264 264 264 265 265 266 266 266 266 266 266 266 266 266 266 266 265 266 265
259 258 258 257 257 257 257 258 258 259 260 260 261 262 262 264 263 262 262 262 262 262 262 262 263 263 264 264 264 265 265 265 265 265 265 265 265 265 264 264 264 263 264
258 258 258 257 257 257 257 257 258 258 260 260 261 261 264 264 262 262 261 261 261 261 261 261 262 263 263 264 264 264 264 264 264 264 264 264 264 264 264 264 263 264 263
258 258 257 257 257 256 256 256 257 258 259 260 260 260 262 261 261 262 262 261 261 262 262 261 262 263 263 263 264 264 264 264 264 264 264 264 264 263 263 263 263 263 262
258 258 258 257 257 256 256 256 257 258 259 259 260 260 260 260 261 261 261 261 261 261 261 262 262 262 263 263 264 264 263 264 264 264 263 263 263 263 263 263 263 262 263
258 258 257 257 256 256 255 256 257 258 258 259 259 259 260 260 260 260 260 261 260 261 261 261 261 262 262 263 263 264 264 264 264 264 263 263 263 263 263 263 263 263 264
259 258 257 256 256 256 256 256 257 258 258 258 259 259 259 259 259 260 260 260 260 260 260 260 261 261 262 262 263 264 264 264 264 264 263 263 263 263 263 263 264 264 265
259 259 258 257 256 256 256 257 257 258 258 258 258 258 258 258 259 259 259 260 260 260 260 260 261 262 262 263 264 264 264 264 264 264 264 264 264 265 265 265 265 265 266
Wind_Speed
25 26 26 25 26 27 28 29 28 28 28 27 26 27 28 30 30 29 29 29 29 30 31 29 31 31 30 27 25 25 22 19 9 8 12 9 15 23 19 15 13 14 15
26 25 25 26 27 28 28 29 29 29 29 28 27 27 28 29 30 29 29 28 29 30 31 31 31 29 29 26 25 21 19 19 18 12 12 11 13 16 13 10 11 11 12
24 24 26 26 27 28 28 29 31 30 30 31 29 28 30 31 31 30 29 29 31 32 34 35 34 29 29 26 24 19 17 15 15 6 4 7 6 9 9 9 9 10 12
24 26 27 27 29 29 28 31 32 33 32 33 29 31 31 33 34 32 28 29 32 34 35 32 32 30 28 27 18 14 13 10 8 6 4 3 3 5 5 4 6 8 7
29 29 28 30 30 28 31 32 32 36 34 29 33 33 34 33 31 29 30 32 33 34 35 32 30 31 30 27 19 15 13 11 8 8 6 5 6 5 7 7 7 5 6
34 31 33 32 29 32 32 33 40 37 34 34 35 34 33 31 31 32 31 31 32 33 36 30 29 29 27 22 23 19 19 17 14 10 10 8 10 10 9 9 7 5 2
33 33 31 31 31 30 36 36 34 33 34 33 32 30 30 31 31 32 32 30 31 32 33 29 28 28 22 16 14 10 13 19 16 13 12 12 12 13 11 10 8 6 6
31 30 29 27 32 34 35 33 33 33 32 32 32 32 27 32 32 31 30 30 28 31 32 26 24 15 15 14 12 11 9 7 8 11 17 13 14 14 16 12 9 8 6
27 30 25 33 35 34 34 34 34 33 33 33 31 30 34 31 30 29 29 27 27 23 26 24 21 16 4 9 10 10 10 12 11 9 11 9 10 12 12 12 8 6 2
30 27 33 33 32 33 33 32 33 33 28 34 34 30 31 30 29 29 27 27 19 21 27 20 18 13 9 6 10 12 10 10 10 10 11 10 9 10 9 14 10 8 5
28 31 31 31 31 31 31 33 31 34 29 29 29 30 28 27 28 27 26 28 22 22 19 19 17 12 9 11 11 13 13 10 11 12 10 8 6 5 5 5 6 6 8
30 31 30 30 30 29 31 29 30 27 28 28 27 28 25 27 28 29 28 26 26 23 19 20 21 17 9 8 9 13 11 12 13 11 11 8 6 5 7 8 9 10 11
30 30 29 28 28 28 28 27 25 25 24 26 25 24 26 28 29 28 31 23 24 24 21 20 22 15 10 9 9 9 16 18 16 11 7 5 5 5 6 6 7 8 10
28 28 27 27 28 27 25 23 24 23 24 25 23 24 23 26 27 30 27 25 26 22 21 23 16 8 9 6 15 16 15 12 9 7 5 5 3 2 1 2 4 6 9
25 25 25 25 26 26 23 23 25 25 26 28 26 24 23 22 26 29 25 22 21 23 20 19 22 17 10 11 15 15 12 9 7 5 5 4 3 3 4 6 7 8 5
25 24 24 26 25 25 26 28 24 24 25 24 23 24 24 24 24 25 26 20 19 19 16 12 13 13 13 12 10 8 8 7 5 2 2 2 3 5 5 6 6 8 8
23 24 25 23 24 25 26 26 29 35 24 23 22 23 23 24 24 24 23 22 17 16 16 14 11 11 10 9 9 8 5 6 4 3 3 4 6 7 7 8 9 9 10
26 26 22 23 23 24 24 25 24 24 27 32 30 26 24 24 24 24 23 18 20 17 15 11 11 11 10 9 9 8 8 8 6 5 6 6 7 8 8 9 9 11 12
28 25 23 24 24 25 25 24 23 24 24 26 29 26 26 26 18 23 18 15 14 13 12 13 12 11 11 11 10 10 10 9 9 9 9 9 9 9 10 11 13 15 16
27 25 24 25 26 24 24 24 24 23 24 24 24 24 29 26 19 20 18 16 15 15 15 15 15 14 13 12 12 12 12 12 12 12 12 12 12 12 13 13 14 12 13
27 24 27 25 23 24 24 23 24 24 23 24 25 26 28 24 21 20 21 20 19 18 19 19 18 15 14 14 14 14 14 15 15 15 15 15 15 15 14 15 15 15 17
24 26 25 24 25 25 25 25 24 23 23 24 27 27 27 23 20 20 20 22 24 22 19 18 18 17 16 16 15 15 16 17 17 17 16 16 15 16 15 15 16 16 15
27 25 25 25 25 27 24 23 23 23 24 25 25 26 25 23 22 22 21 22 22 24 22 20 19 19 17 16 15 16 17 19 18 17 17 17 17 17 16 16 17 18 14
24 28 27 27 26 26 25 25 24 24 25 25 25 24 24 24 24 24 24 23 22 24 24 22 20 20 20 18 17 16 17 18 18 18 17 18 19 17 17 18 20 20 18
29 29 29 27 27 27 26 25 25 25 25 24 25 25 26 25 25 25 24 24 23 23 24 24 24 23 19 18 18 17 17 17 18 17 17 18 19 20 20 20 20 18 18
29 29 29 28 27 25 25 26 26 26 26 26 26 26 26 27 26 26 26 25 24 24 26 25 23 20 18 18 16 15 16 16 16 15 15 16 18 18 18 19 20 20 20
Wind_Direction
331 326 320 317 315 312 308 307 305 305 305 305 306 310 311 309 308 304 299 297 297 296 294 293 292 290 285 284 268 259 257 252 258 247 225 196 176 170 171 180 192 200 206
327 321 320 319 319 316 313 312 309 304 303 302 305 306 309 309 309 304 299 298 297 295 295 292 288 292 287 283 269 260 251 248 246 249 186 173 174 182 183 191 207 213 219
324 323 322 321 321 317 314 315 313 306 305 301 302 305 308 309 308 304 298 295 295 292 292 289 281 283 285 279 260 249 249 241 229 200 163 159 141 181 180 192 212 226 232
326 325 323 324 322 318 316 317 317 312 304 305 301 303 304 307 306 302 298 298 299 297 298 295 283 272 275 276 248 242 239 229 218 204 157 136 151 178 201 196 205 212 198
329 327 325 324 322 318 319 318 319 317 306 304 305 303 303 304 304 304 302 299 298 302 301 294 297 277 272 261 236 227 214 207 195 186 182 174 177 183 204 198 190 180 234
333 327 327 323 322 318 320 320 315 311 307 304 303 303 303 304 307 306 302 302 302 301 299 298 296 287 276 251 231 225 210 191 191 185 183 195 210 215 207 197 182 179 201
329 326 322 322 317 321 317 315 314 314 311 307 305 306 305 305 311 309 306 302 297 298 298 294 300 296 247 230 226 214 217 208 204 198 203 206 204 208 195 188 194 201 202
325 321 323 322 321 319 317 315 316 315 312 310 308 304 314 312 312 311 309 304 301 297 299 292 304 295 223 206 208 211 214 233 225 212 204 209 209 217 211 212 220 203 218
324 326 327 325 320 319 318 319 317 316 313 312 311 323 313 308 318 319 315 309 299 306 318 306 309 316 280 216 197 204 218 226 225 219 222 214 209 216 222 208 187 184 193
328 328 323 322 320 318 320 318 320 316 324 320 316 314 311 310 318 323 317 310 323 320 316 310 325 297 280 247 210 203 211 215 202 191 188 189 193 191 192 212 188 187 196
326 324 323 322 321 321 321 322 323 327 326 323 321 320 319 319 320 324 324 325 326 310 328 329 323 310 265 242 222 216 220 213 189 188 186 199 211 208 208 214 218 215 216
326 325 324 324 325 325 324 327 329 331 327 324 324 323 325 328 325 326 327 325 331 334 325 320 320 312 238 225 227 207 200 185 183 178 157 150 159 196 227 236 242 243 235
327 325 325 327 327 327 330 329 329 329 328 321 321 322 330 329 326 328 327 328 337 331 329 325 324 309 240 216 205 193 146 138 135 135 145 161 173 198 226 238 239 242 244
326 326 327 329 327 327 329 329 324 325 321 315 325 325 330 328 326 323 331 338 332 332 354 358 343 328 351 161 115 128 124 122 120 122 137 156 185 189 203 291 288 301 300
327 327 328 329 326 325 328 326 325 322 321 329 324 327 325 324 317 327 332 337 13 0 355 8 18 22 35 70 99 100 96 96 101 124 151 166 185 245 275 285 295 302 272
328 331 328 326 325 325 325 324 328 328 330 331 331 331 330 329 331 334 333 359 350 356 8 12 11 13 26 30 39 53 62 64 71 95 143 204 244 256 270 272 274 281 285
328 327 325 324 324 325 326 326 324 328 332 332 335 336 337 336 336 333 346 357 358 1 22 14 8 5 4 12 16 18 17 8 354 325 304 296 283 276 276 284 292 296 298
334 331 322 319 320 320 320 318 317 318 321 324 332 336 336 338 337 345 340 352 3 12 13 5 357 356 354 351 351 351 340 335 331 322 313 305 297 287 283 277 283 291 295
337 329 323 319 318 317 316 316 314 314 313 314 321 328 331 334 337 346 349 351 344 347 350 350 347 341 336 333 332 327 322 317 313 306 301 302 294 286 284 285 285 287 291
338 331 321 320 319 320 319 317 316 316 315 315 318 321 323 324 345 342 341 339 335 330 333 332 334 331 326 321 316 313 308 304 301 296 295 295 293 290 286 286 285 284 283
333 321 322 321 317 318 316 314 314 312 312 313 313 318 327 338 327 319 317 323 324 322 323 326 324 322 319 313 308 303 298 298 297 297 296 295 296 295 296 293 289 286 283
324 321 318 315 317 317 316 313 311 310 311 313 314 318 327 324 319 317 316 316 322 324 323 319 316 314 313 310 304 295 291 290 292 293 293 290 289 290 290 289 289 286 283
333 321 319 317 318 320 316 314 312 312 313 314 315 317 320 319 317 316 314 313 313 317 322 320 316 312 308 304 298 294 289 289 293 293 288 287 287 286 286 286 287 289 278
325 326 323 321 321 320 316 315 314 314 315 316 317 317 317 316 314 313 313 313 311 312 318 318 314 310 307 301 295 289 286 287 287 284 279 277 280 281 281 282 285 282 274
336 335 332 327 323 321 317 317 316 316 317 317 317 318 316 316 314 313 313 313 311 310 311 314 311 310 306 300 294 291 288 286 283 280 273 268 269 276 279 281 280 276 274
341 341 338 332 325 319 317 316 316 317 317 318 317 316 315 314 313 313 313 313 312 311 310 314 314 313 308 301 297 293 288 282 277 270 265 263 266 273 278 279 283 277 277